TimeCDT,TemperatureF,Dew PointF,Humidity,Sea Level PressureIn,VisibilityMPH,Wind Direction,Wind SpeedMPH,Gust SpeedMPH,PrecipitationIn,Events,Conditions,WindDirDegrees,DateUTC
12:25 AM,35.6,32.0,87,29.90,10.0,East,13.8,-,N/A,,Overcast,80,2013-03-22 05:25:00
12:44 AM,35.6,32.0,87,29.92,10.0,ENE,10.4,-,N/A,,Light Drizzle,70,2013-03-22 05:44:00
12:58 AM,35.2,33.6,94,29.90,10.0,ENE,12.7,-,0.01,Rain,Light Rain,70,2013-03-22 05:58:00
1:34 AM,35.6,33.8,93,29.90,10.0,ENE,9.2,-,N/A,,Overcast,70,2013-03-22 06:34:00
1:40 AM,35.6,33.8,93,29.90,10.0,East,9.2,-,N/A,Rain,Light Rain,80,2013-03-22 06:40:00
1:58 AM,35.4,33.8,94,29.90,10.0,ENE,10.4,-,0.02,,Light Drizzle,70,2013-03-22 06:58:00
1:59 AM,35.6,33.8,93,29.90,10.0,ENE,10.4,-,N/A,,Overcast,70,2013-03-22 06:59:00
2:10 AM,35.6,33.8,93,29.90,10.0,ENE,11.5,-,N/A,,Light Drizzle,70,2013-03-22 07:10:00
2:20 AM,35.6,33.8,93,29.90,10.0,ENE,10.4,-,N/A,,Overcast,60,2013-03-22 07:20:00
2:58 AM,36.0,34.3,94,29.89,10.0,East,10.4,-,0.00,,Overcast,80,2013-03-22 07:58:00
3:06 AM,35.6,35.6,100,29.88,10.0,ENE,9.2,-,N/A,Rain,Light Rain,70,2013-03-22 08:06:00
3:58 AM,36.9,35.6,95,29.88,6.0,East,8.1,-,0.04,,Overcast,100,2013-03-22 08:58:00
4:43 AM,37.4,35.6,93,29.88,4.0,NNE,5.8,-,N/A,Rain,Rain,30,2013-03-22 09:43:00
4:58 AM,37.2,36.1,96,29.88,4.0,East,5.8,-,0.16,Rain,Light Rain,80,2013-03-22 09:58:00
5:41 AM,37.4,37.4,100,29.88,10.0,NE,8.1,-,N/A,,Overcast,40,2013-03-22 10:41:00
5:58 AM,37.2,36.3,97,29.88,10.0,ENE,10.4,-,0.03,,Overcast,60,2013-03-22 10:58:00
6:03 AM,37.4,35.6,93,29.87,10.0,NE,10.4,-,N/A,,Light Drizzle,50,2013-03-22 11:03:00
6:22 AM,37.4,35.6,93,29.88,10.0,ENE,8.1,-,N/A,,Overcast,60,2013-03-22 11:22:00
6:40 AM,37.4,35.6,93,29.89,10.0,NE,8.1,-,N/A,,Light Drizzle,40,2013-03-22 11:40:00
6:58 AM,36.9,35.8,96,29.92,10.0,NE,10.4,-,0.00,,Light Drizzle,40,2013-03-22 11:58:00
7:00 AM,37.4,35.6,93,29.90,10.0,NNE,8.1,-,N/A,,Overcast,30,2013-03-22 12:00:00
7:37 AM,37.4,35.6,93,29.92,10.0,NNE,8.1,-,N/A,Rain,Light Rain,20,2013-03-22 12:37:00
7:58 AM,36.7,36.0,97,29.92,5.0,ENE,10.4,-,0.02,Rain,Light Rain,70,2013-03-22 12:58:00
8:58 AM,37.0,36.3,97,29.94,4.0,East,9.2,-,0.12,Rain,Light Rain,80,2013-03-22 13:58:00
9:58 AM,38.1,37.4,97,29.93,8.0,ENE,9.2,-,0.09,Rain,Light Rain,60,2013-03-22 14:58:00
10:10 AM,-9999,-9999,N/A,-9999,-9999.0,ENE,9.2,-,N/A,,Unknown,60,2013-03-22 15:10:00
10:11 AM,37.4,37.4,100,29.92,10.0,ENE,12.7,-,N/A,Rain,Light Rain,60,2013-03-22 15:11:00
10:20 AM,39.2,37.4,93,29.91,10.0,ENE,11.5,-,N/A,,Overcast,60,2013-03-22 15:20:00
10:58 AM,39.2,38.3,97,29.95,10.0,NE,9.2,-,0.01,,Overcast,40,2013-03-22 15:58:00
11:58 AM,39.6,38.5,96,29.95,10.0,NE,8.1,-,N/A,,Overcast,50,2013-03-22 16:58:00
12:33 PM,41.0,39.2,93,29.91,10.0,ENE,8.1,-,N/A,,Overcast,60,2013-03-22 17:33:00
12:58 PM,41.7,40.3,95,29.93,10.0,ENE,8.1,-,N/A,,Overcast,60,2013-03-22 17:58:00
1:58 PM,42.8,41.0,93,29.90,10.0,ENE,10.4,-,N/A,,Overcast,60,2013-03-22 18:58:00
2:17 PM,42.8,41.0,93,29.88,10.0,NNE,9.2,-,N/A,,Overcast,30,2013-03-22 19:17:00
2:58 PM,42.8,41.0,93,29.88,10.0,NNE,6.9,-,N/A,,Overcast,30,2013-03-22 19:58:00
3:47 PM,42.8,41.0,93,29.88,9.0,NNE,10.4,-,N/A,Rain,Light Rain,20,2013-03-22 20:47:00
3:54 PM,42.8,41.0,93,29.87,9.0,NNE,4.6,-,N/A,,Light Drizzle,20,2013-03-22 20:54:00
3:55 PM,42.8,41.0,93,29.87,9.0,NNE,4.6,-,N/A,,Overcast,30,2013-03-22 20:55:00
3:58 PM,42.8,41.0,93,29.89,9.0,NNE,5.8,-,0.00,,Light Drizzle,30,2013-03-22 20:58:00
4:10 PM,42.8,41.0,93,29.88,5.0,NNE,4.6,-,N/A,,Overcast,30,2013-03-22 21:10:00
4:18 PM,42.8,41.0,93,29.88,5.0,NNE,4.6,-,N/A,,Light Drizzle,20,2013-03-22 21:18:00
4:28 PM,42.8,41.0,93,29.87,4.0,NNE,6.9,-,N/A,,Light Drizzle,20,2013-03-22 21:28:00
4:58 PM,42.1,41.4,97,29.90,3.0,NNE,4.6,-,0.00,,Light Drizzle,20,2013-03-22 21:58:00
5:16 PM,42.8,41.0,93,29.88,3.0,NNE,9.2,-,N/A,,Overcast,20,2013-03-22 22:16:00
5:57 PM,41.0,41.0,100,29.88,6.0,NNE,8.1,-,N/A,,Overcast,30,2013-03-22 22:57:00
5:58 PM,41.0,41.0,100,29.91,6.0,NNE,8.1,-,N/A,,Overcast,20,2013-03-22 22:58:00
6:03 PM,41.0,41.0,100,29.89,6.0,North,6.9,-,N/A,,Overcast,10,2013-03-22 23:03:00
6:20 PM,41.0,39.2,93,29.89,5.0,NNE,6.9,-,N/A,,Overcast,20,2013-03-22 23:20:00
6:28 PM,41.0,39.2,93,29.89,4.0,NNE,11.5,-,N/A,,Overcast,20,2013-03-22 23:28:00
6:58 PM,40.3,39.6,97,29.92,4.0,NNE,9.2,-,0.00,,Overcast,30,2013-03-22 23:58:00
7:45 PM,39.2,39.2,100,29.91,7.0,NNE,9.2,-,N/A,,Overcast,30,2013-03-23 00:45:00
7:54 PM,39.2,39.2,100,29.91,6.0,NNE,5.8,-,N/A,,Overcast,30,2013-03-23 00:54:00
7:58 PM,39.6,38.8,97,29.93,6.0,NE,8.1,-,0.00,,Overcast,40,2013-03-23 00:58:00
8:13 PM,39.2,39.2,100,29.91,7.0,NE,8.1,-,N/A,,Overcast,40,2013-03-23 01:13:00
8:23 PM,39.2,39.2,100,29.92,7.0,NE,8.1,-,N/A,,Overcast,40,2013-03-23 01:23:00
8:58 PM,39.6,39.0,98,29.96,7.0,NNE,8.1,-,N/A,,Overcast,20,2013-03-23 01:58:00
9:58 PM,39.7,39.2,98,29.94,5.0,NE,8.1,-,N/A,,Overcast,40,2013-03-23 02:58:00
10:58 PM,39.9,39.4,98,29.93,6.0,NE,6.9,-,N/A,,Overcast,40,2013-03-23 03:58:00
11:58 PM,40.5,39.9,98,29.95,7.0,North,4.6,-,N/A,,Overcast,360,2013-03-23 04:58:00